Tracking 31030 objects as of 16-Jul-2025
HD Live streaming from Space Station
objects crossing your sky now

CZ-6A DEB

Track CZ-6A DEB now!
10-day predictions


NORAD ID: 55551
Int'l Code: 2022-151YZ
Perigee: 662.5 km
Apogee: 816.0 km
Inclination: 98.6 °
Period: 99.4 minutes
Semi major axis: 7110 km
RCS: Unknown
Launch date: November 11, 2022
Source: People's Republic of China (PRC)
Launch site: Taiyaun Space Center, China (TSC)

Note: This is SATELLITE DEBRIS
Your satellite tracking list
Your tracking list is empty




NASA's NSSDC Master Catalog

Two Line Element Set (TLE):
1 55551U 22151YZ  25197.05079972  .00001893  00000-0  48667-3 0  9990
2 55551  98.6378 232.0356 0107968 272.0623  86.8208 14.48019559134262
Source of the keplerian elements: AFSPC